Погода в Махмуде-Мектебе

Россия / Ставропольский край     44°26′14″N   45°12′20″E
темп.,
°C
ветер,
м/с
пор.,
м/с
влажн.,
%
обл.,
%
осадки,
мм/ч
давл.,
гПа
погр.,
м
13 июня, вс
вс1300:00+22ю1160100 0.0 101111
03:00+21юв1163100 0.0 101111
06:00+22юв2359100 0.0 1012155
09:00+24вюв1248100 0.0 1012564
12:00+28в2339100 0.0 10111936
15:00+23в1363100 0.8 1011299
18:00+23юз1157100 0.3 1011236
21:00+21зюз4675100 0.5 1012133
14 июня, пн
пн1400:00+19з3390100 4.9 1013175
03:00+19зсз238448 5.0 1012106
06:00+20з23800 0.0 1012224
09:00+24сз116110 0.0 10121001
12:00+27всв224679 0.0 10111893
15:00+29св22406 0.0 10101889
18:00+28ссв33421 0.0 10101519
21:00+25с58540 0.0 1010204
15 июня, вт
вт1500:00+23св48610 0.0 1009187
03:00+22св3668100 0.0 1008148
06:00+22св456914 0.0 1008277
09:00+25св235852 1.7 1008738
12:00+29с324320 0.1 10081761
15:00+29ссз43455 0.4 10081290
18:00+30ссз33421 0.0 10081585
21:00+26ссз33550 0.1 100949
16 июня, ср
ср1600:00+24ссз33630 0.1 100939
03:00+23с22640 0.1 101013
06:00+24с22620 0.2 1010134
09:00+29всв34430 0.3 10101201
12:00+32в573416 0.0 10082290
15:00+33в773242 0.0 10072453
18:00+31в76370 0.0 10081175
21:00+27в59504 0.0 1009299
17 июня, чт
чт1700:00+24вюв36620 0.0 1008165
03:00+22вюв22700 0.0 100815
06:00+24св34680 0.0 1008245
09:00+29всв56410 0.0 10061152
12:00+34в56320 0.0 10041749
15:00+35юв242999 0.0 10032466
18:00+32з143697 1.1 1005757
21:00+23зсз812825 3.9 1009415